MLISHS1 KSDF-KFRG

Flight info

Callsign MLISHS1
Flight time 1h 20m
Altitude 27000
Route GBEES Q139 CREEP J110 LARRI Q430 RBV
Aircraft F16/M-VRDW/C

Departure

Time 2026-04-29 23:34
Airport Louisville Muhammad Ali International Airport (KSDF)

Arrival

Time 2026-04-30 00:54
Airport Republic Airport (KFRG)
Time Latitude Longitude Altitude Speed Heading
2026-04-29 23:08 38.17596 -85.72424 505 ft 0 kts 254°
2026-04-29 23:27 38.17594 -85.72432 505 ft 2 kts 255°
2026-04-29 23:27 38.17577 -85.72463 505 ft 6 kts 201°
2026-04-29 23:27 38.17522 -85.72452 505 ft 9 kts 165°
2026-04-29 23:27 38.17519 -85.72450 505 ft 0 kts 164°
2026-04-29 23:28 38.17509 -85.72447 505 ft 4 kts 164°
2026-04-29 23:28 38.17467 -85.72465 505 ft 6 kts 218°
2026-04-29 23:29 38.17458 -85.72473 505 ft 0 kts 217°
2026-04-29 23:29 38.17454 -85.72478 505 ft 3 kts 219°
2026-04-29 23:29 38.17419 -85.72513 505 ft 9 kts 205°
2026-04-29 23:29 38.17344 -85.72499 505 ft 12 kts 165°
2026-04-29 23:30 38.17245 -85.72465 505 ft 16 kts 165°
2026-04-29 23:30 38.17133 -85.72427 505 ft 17 kts 166°
2026-04-29 23:30 38.17038 -85.72382 505 ft 11 kts 154°
2026-04-29 23:30 38.16996 -85.72427 505 ft 0 kts 253°
2026-04-29 23:32 38.16995 -85.72430 505 ft 1 kts 253°
2026-04-29 23:33 38.16988 -85.72458 505 ft 5 kts 253°
2026-04-29 23:33 38.16973 -85.72519 505 ft 9 kts 238°
2026-04-29 23:33 38.17011 -85.72548 505 ft 12 kts 357°
2026-04-29 23:33 38.17020 -85.72550 505 ft 0 kts 342°
2026-04-29 23:34 38.17408 -85.72685 505 ft 194 kts 345°
2026-04-29 23:34 38.19236 -85.73270 2843 ft 362 kts 345°
2026-04-29 23:34 38.20627 -85.73608 10738 ft 358 kts 351°
2026-04-29 23:34 38.22310 -85.73272 18350 ft 429 kts
2026-04-29 23:35 38.24945 -85.71687 22528 ft 484 kts 34°
2026-04-29 23:35 38.27354 -85.68456 25397 ft 565 kts 44°
2026-04-29 23:35 38.30081 -85.64566 26314 ft 592 kts 42°
2026-04-29 23:35 38.32878 -85.60706 26966 ft 602 kts 42°
2026-04-29 23:36 38.35730 -85.56738 26989 ft 607 kts 42°
2026-04-29 23:36 38.38576 -85.52769 26984 ft 610 kts 42°
2026-04-29 23:36 38.41454 -85.48772 26990 ft 610 kts 41°
2026-04-29 23:36 38.44383 -85.44814 27000 ft 609 kts 40°
2026-04-29 23:37 38.47336 -85.40959 27000 ft 609 kts 40°
2026-04-29 23:37 38.50295 -85.37128 27007 ft 608 kts 39°
2026-04-29 23:37 38.53337 -85.33301 26998 ft 607 kts 39°
2026-04-29 23:37 38.56395 -85.29614 27007 ft 607 kts 37°
2026-04-29 23:38 38.59508 -85.26037 27012 ft 605 kts 36°
2026-04-29 23:38 38.62763 -85.22522 27017 ft 603 kts 33°
2026-04-29 23:38 38.66038 -85.19291 27022 ft 600 kts 31°
2026-04-29 23:38 38.69430 -85.16168 26996 ft 596 kts 28°
2026-04-29 23:39 38.72892 -85.13207 26990 ft 595 kts 27°
2026-04-29 23:39 38.76383 -85.10364 26988 ft 593 kts 26°
2026-04-29 23:39 38.79899 -85.07618 26976 ft 590 kts 25°
2026-04-29 23:39 38.83429 -85.04983 26972 ft 587 kts 24°
2026-04-29 23:40 38.87024 -85.02431 26971 ft 585 kts 22°
2026-04-29 23:40 38.90587 -85.00063 26969 ft 584 kts 21°
2026-04-29 23:40 38.94275 -84.97813 26968 ft 584 kts 19°
2026-04-29 23:40 38.98001 -84.95808 26966 ft 584 kts 18°
2026-04-29 23:41 39.01772 -84.93812 26962 ft 586 kts 20°
2026-04-29 23:41 39.05349 -84.91222 26989 ft 592 kts 29°
2026-04-29 23:41 39.08865 -84.88435 26967 ft 592 kts 28°
2026-04-29 23:41 39.12363 -84.85725 26962 ft 592 kts 27°
2026-04-29 23:42 39.15938 -84.82970 26962 ft 592 kts 27°
2026-04-29 23:42 39.19476 -84.80250 26963 ft 592 kts 27°
2026-04-29 23:42 39.23019 -84.77530 26963 ft 593 kts 27°
2026-04-29 23:42 39.26469 -84.74854 26964 ft 592 kts 27°
2026-04-29 23:43 39.30026 -84.72088 26962 ft 592 kts 27°
2026-04-29 23:43 39.33575 -84.69341 26968 ft 592 kts 27°
2026-04-29 23:43 39.37109 -84.66631 26969 ft 591 kts 27°
2026-04-29 23:43 39.40649 -84.63949 26972 ft 591 kts 26°
2026-04-29 23:44 39.44192 -84.61303 26970 ft 591 kts 26°
2026-04-29 23:44 39.47753 -84.58680 26974 ft 591 kts 26°
2026-04-29 23:44 39.51320 -84.56087 26974 ft 590 kts 25°
2026-04-29 23:44 39.54900 -84.53525 26976 ft 590 kts 25°
2026-04-29 23:45 39.58442 -84.51027 26976 ft 590 kts 24°
2026-04-29 23:45 39.62053 -84.48516 26974 ft 589 kts 24°
2026-04-29 23:45 39.65719 -84.46006 26975 ft 589 kts 24°
2026-04-29 23:45 39.69335 -84.43564 26971 ft 590 kts 24°
2026-04-29 23:46 39.72783 -84.40636 27026 ft 594 kts 39°
2026-04-29 23:46 39.75521 -84.36621 27032 ft 600 kts 56°
2026-04-29 23:46 39.77368 -84.31795 27022 ft 603 kts 72°
2026-04-29 23:46 39.78320 -84.26510 26977 ft 606 kts 78°
2026-04-29 23:47 39.79201 -84.21131 26951 ft 607 kts 77°
2026-04-29 23:47 39.80103 -84.15833 26944 ft 607 kts 77°
2026-04-29 23:47 39.81010 -84.10489 26939 ft 607 kts 77°
2026-04-29 23:47 39.81918 -84.05096 26935 ft 607 kts 77°
2026-04-29 23:48 39.82816 -83.99769 26928 ft 608 kts 77°
2026-04-29 23:48 39.83700 -83.94432 26927 ft 608 kts 78°
2026-04-29 23:48 39.84577 -83.88993 26928 ft 608 kts 78°
2026-04-29 23:48 39.85437 -83.83566 26929 ft 608 kts 78°
2026-04-29 23:49 39.86312 -83.78189 26927 ft 608 kts 78°
2026-04-29 23:49 39.87182 -83.72807 26931 ft 608 kts 78°
2026-04-29 23:49 39.88032 -83.67430 26935 ft 607 kts 78°
2026-04-29 23:49 39.88910 -83.62025 26940 ft 607 kts 77°
2026-04-29 23:50 39.89784 -83.56624 26943 ft 607 kts 78°
2026-04-29 23:50 39.90660 -83.51251 26947 ft 607 kts 77°
2026-04-29 23:50 39.92452 -83.40465 26942 ft 607 kts 76°
2026-04-29 23:51 39.93388 -83.35122 26938 ft 607 kts 76°
2026-04-29 23:51 39.94322 -83.29768 26929 ft 607 kts 77°
2026-04-29 23:51 39.95238 -83.24403 26924 ft 607 kts 77°
2026-04-29 23:51 39.96135 -83.19026 26921 ft 607 kts 78°
2026-04-29 23:52 39.96605 -83.13562 26977 ft 603 kts 92°
2026-04-29 23:52 39.96584 -83.08134 26920 ft 606 kts 91°
2026-04-29 23:52 39.96595 -83.02583 26914 ft 606 kts 89°
2026-04-29 23:52 39.96747 -82.97135 26914 ft 605 kts 88°
2026-04-29 23:53 39.96991 -82.91650 26911 ft 603 kts 88°
2026-04-29 23:53 39.97274 -82.86169 26914 ft 601 kts 88°
2026-04-29 23:53 39.97570 -82.80727 26915 ft 598 kts 88°
2026-04-29 23:53 39.97862 -82.75341 26914 ft 595 kts 88°
2026-04-29 23:54 39.98122 -82.70006 26912 ft 594 kts 89°
2026-04-29 23:54 39.98360 -82.64622 26919 ft 595 kts 89°
2026-04-29 23:54 39.98598 -82.59182 26915 ft 595 kts 89°
2026-04-29 23:54 39.98834 -82.53822 26918 ft 594 kts 88°
2026-04-29 23:55 39.99094 -82.48402 26922 ft 594 kts 88°
2026-04-29 23:55 39.99355 -82.43098 26925 ft 594 kts 88°
2026-04-29 23:55 39.99605 -82.37714 26926 ft 593 kts 89°
2026-04-29 23:55 39.99812 -82.32320 26925 ft 593 kts 90°
2026-04-29 23:56 40.00016 -82.26935 26917 ft 594 kts 89°
2026-04-29 23:56 40.00267 -82.21516 26911 ft 595 kts 89°
2026-04-29 23:56 40.00513 -82.16154 26904 ft 594 kts 89°
2026-04-29 23:56 40.00747 -82.10809 26904 ft 594 kts 89°
2026-04-29 23:57 40.00946 -82.05421 26898 ft 595 kts 89°
2026-04-29 23:57 40.01131 -82.00018 26893 ft 595 kts 90°
2026-04-29 23:57 40.01275 -81.94621 26889 ft 593 kts 91°
2026-04-29 23:57 40.01335 -81.89212 26896 ft 593 kts 92°
2026-04-29 23:58 40.01336 -81.83884 26898 ft 593 kts 92°
2026-04-29 23:58 40.01325 -81.78463 26899 ft 593 kts 92°
2026-04-29 23:58 40.01311 -81.73122 26898 ft 594 kts 92°
2026-04-29 23:58 40.01247 -81.67706 26896 ft 593 kts 94°
2026-04-29 23:59 40.01106 -81.62347 26914 ft 593 kts 94°
2026-04-29 23:59 40.00948 -81.56917 26906 ft 593 kts 95°
2026-04-29 23:59 40.00849 -81.51549 26934 ft 593 kts 89°
2026-04-29 23:59 40.01004 -81.46172 26914 ft 594 kts 89°
2026-04-30 00:00 40.01174 -81.40773 26909 ft 594 kts 89°
2026-04-30 00:00 40.01337 -81.35385 26916 ft 595 kts 90°
2026-04-30 00:00 40.01404 -81.29983 26906 ft 594 kts 93°
2026-04-30 00:00 40.01358 -81.24636 26910 ft 594 kts 93°
2026-04-30 00:01 40.01426 -81.19244 26910 ft 595 kts 90°
2026-04-30 00:01 40.01598 -81.13837 26904 ft 594 kts 90°
2026-04-30 00:01 40.01776 -81.08460 26903 ft 595 kts 90°
2026-04-30 00:01 40.02004 -81.03083 26896 ft 597 kts 90°
2026-04-30 00:02 40.02216 -80.97658 26894 ft 598 kts 91°
2026-04-30 00:02 40.02347 -80.92264 26881 ft 598 kts 93°
2026-04-30 00:02 40.02383 -80.86842 26875 ft 597 kts 96°
2026-04-30 00:02 40.02394 -80.81358 26870 ft 600 kts 91°
2026-04-30 00:03 40.02640 -80.75939 26863 ft 601 kts 91°
2026-04-30 00:03 40.02875 -80.70476 26875 ft 600 kts 91°
2026-04-30 00:03 40.03133 -80.65043 26875 ft 602 kts 91°
2026-04-30 00:03 40.03425 -80.59589 26869 ft 602 kts 91°
2026-04-30 00:04 40.03737 -80.54162 26893 ft 603 kts 90°
2026-04-30 00:04 40.04010 -80.48728 26886 ft 603 kts 91°
2026-04-30 00:04 40.04268 -80.43253 26889 ft 600 kts 92°
2026-04-30 00:04 40.04483 -80.37827 26902 ft 598 kts 93°
2026-04-30 00:05 40.04604 -80.32355 26905 ft 596 kts 94°
2026-04-30 00:05 40.04731 -80.26974 26884 ft 597 kts 93°
2026-04-30 00:05 40.04886 -80.21558 26888 ft 599 kts 94°
2026-04-30 00:05 40.04952 -80.16168 26899 ft 597 kts 95°
2026-04-30 00:06 40.04971 -80.10703 26887 ft 597 kts 95°
2026-04-30 00:06 40.04968 -80.05335 26884 ft 596 kts 95°
2026-04-30 00:06 40.04955 -79.99880 26874 ft 596 kts 96°
2026-04-30 00:06 40.04933 -79.94486 26858 ft 597 kts 95°
2026-04-30 00:07 40.04921 -79.89023 26860 ft 595 kts 96°
2026-04-30 00:07 40.04818 -79.83658 26859 ft 595 kts 98°
2026-04-30 00:07 40.04629 -79.78293 26853 ft 595 kts 98°
2026-04-30 00:07 40.04424 -79.72848 26867 ft 594 kts 98°
2026-04-30 00:08 40.04173 -79.67493 26859 ft 593 kts 99°
2026-04-30 00:08 40.03837 -79.62104 26866 ft 590 kts 101°
2026-04-30 00:08 40.03393 -79.56795 26868 ft 588 kts 103°
2026-04-30 00:08 40.02811 -79.51565 26867 ft 586 kts 105°
2026-04-30 00:09 40.02046 -79.46333 26861 ft 584 kts 107°
2026-04-30 00:09 40.01257 -79.41122 26871 ft 586 kts 105°
2026-04-30 00:09 40.01038 -79.35719 26915 ft 598 kts 92°
2026-04-30 00:09 40.01257 -79.30440 26858 ft 600 kts 92°
2026-04-30 00:10 40.01454 -79.25026 26856 ft 599 kts 93°
2026-04-30 00:10 40.01657 -79.19564 26854 ft 597 kts 92°
2026-04-30 00:10 40.01864 -79.14172 26848 ft 598 kts 93°
2026-04-30 00:10 40.02023 -79.08756 26848 ft 598 kts 93°
2026-04-30 00:11 40.02176 -79.03336 26842 ft 598 kts 93°
2026-04-30 00:11 40.02345 -78.97907 26843 ft 598 kts 93°
2026-04-30 00:11 40.02507 -78.92514 26841 ft 597 kts 93°
2026-04-30 00:11 40.02653 -78.87086 26840 ft 597 kts 94°
2026-04-30 00:12 40.02780 -78.81658 26838 ft 597 kts 94°
2026-04-30 00:12 40.02889 -78.76289 26837 ft 596 kts 94°
2026-04-30 00:12 40.02973 -78.70868 26836 ft 596 kts 94°
2026-04-30 00:12 40.03022 -78.65424 26835 ft 595 kts 95°
2026-04-30 00:13 40.03041 -78.60035 26835 ft 595 kts 95°
2026-04-30 00:13 40.03017 -78.54675 26835 ft 594 kts 96°
2026-04-30 00:13 40.02932 -78.49263 26835 ft 595 kts 97°
2026-04-30 00:13 40.02809 -78.43859 26836 ft 595 kts 97°
2026-04-30 00:14 40.02639 -78.38510 26836 ft 594 kts 98°
2026-04-30 00:14 40.02408 -78.33106 26833 ft 593 kts 99°
2026-04-30 00:14 40.02114 -78.27740 26830 ft 592 kts 101°
2026-04-30 00:14 40.01745 -78.22349 26829 ft 590 kts 102°
2026-04-30 00:15 40.01284 -78.17024 26827 ft 588 kts 103°
2026-04-30 00:15 40.00722 -78.11794 26823 ft 587 kts 105°
2026-04-30 00:15 40.00022 -78.06576 26820 ft 585 kts 107°
2026-04-30 00:15 39.99136 -78.01366 26817 ft 581 kts 110°
2026-04-30 00:16 39.98106 -77.96330 26813 ft 581 kts 108°
2026-04-30 00:16 39.97657 -77.91001 26879 ft 595 kts 92°
2026-04-30 00:16 39.98101 -77.85580 26893 ft 594 kts 95°
2026-04-30 00:16 39.98104 -77.80220 26830 ft 595 kts 95°
2026-04-30 00:17 39.98114 -77.74792 26816 ft 596 kts 95°
2026-04-30 00:17 39.98089 -77.69453 26815 ft 595 kts 96°
2026-04-30 00:17 39.97968 -77.64050 26816 ft 593 kts 98°
2026-04-30 00:17 39.97720 -77.58654 26815 ft 591 kts 100°
2026-04-30 00:18 39.97325 -77.53316 26816 ft 589 kts 103°
2026-04-30 00:18 39.96782 -77.48023 26819 ft 589 kts 103°
2026-04-30 00:18 39.96330 -77.42697 26851 ft 593 kts 97°
2026-04-30 00:18 39.96149 -77.37356 26836 ft 593 kts 98°
2026-04-30 00:19 39.95898 -77.31970 26838 ft 592 kts 99°
2026-04-30 00:19 39.96047 -77.26636 26902 ft 602 kts 84°
2026-04-30 00:19 39.96828 -77.21254 26856 ft 605 kts 84°
2026-04-30 00:19 39.97632 -77.15794 26849 ft 606 kts 84°
2026-04-30 00:20 39.98414 -77.10384 26849 ft 605 kts 84°
2026-04-30 00:20 39.99164 -77.05037 26849 ft 605 kts 85°
2026-04-30 00:20 39.99901 -76.99571 26849 ft 604 kts 85°
2026-04-30 00:20 40.00601 -76.94192 26850 ft 604 kts 85°
2026-04-30 00:21 40.01284 -76.88816 26849 ft 604 kts 85°
2026-04-30 00:21 40.01944 -76.83425 26848 ft 602 kts 86°
2026-04-30 00:21 40.02534 -76.78057 26846 ft 601 kts 87°
2026-04-30 00:21 40.03055 -76.72606 26840 ft 600 kts 89°
2026-04-30 00:22 40.03473 -76.67229 26833 ft 598 kts 90°
2026-04-30 00:22 40.03768 -76.61790 26826 ft 596 kts 92°
2026-04-30 00:22 40.03910 -76.56393 26821 ft 594 kts 95°
2026-04-30 00:22 40.03853 -76.51067 26823 ft 591 kts 97°
2026-04-30 00:23 40.04007 -76.45690 26890 ft 599 kts 84°
2026-04-30 00:23 40.04724 -76.40475 26860 ft 602 kts 84°
2026-04-30 00:23 40.05447 -76.35073 26866 ft 602 kts 84°
2026-04-30 00:23 40.06162 -76.29739 26873 ft 601 kts 85°
2026-04-30 00:24 40.06870 -76.24410 26876 ft 601 kts 85°
2026-04-30 00:24 40.07567 -76.19031 26877 ft 601 kts 85°
2026-04-30 00:24 40.08226 -76.13628 26877 ft 600 kts 86°
2026-04-30 00:24 40.08810 -76.08227 26878 ft 599 kts 88°
2026-04-30 00:25 40.09304 -76.02887 26880 ft 597 kts 89°
2026-04-30 00:25 40.09689 -75.97478 26884 ft 595 kts 91°
2026-04-30 00:25 40.09928 -75.92097 26889 ft 594 kts 93°
2026-04-30 00:25 40.09995 -75.86714 26893 ft 591 kts 96°
2026-04-30 00:26 40.09981 -75.81390 26921 ft 594 kts 90°
2026-04-30 00:26 40.10597 -75.76018 26904 ft 601 kts 85°
2026-04-30 00:26 40.11284 -75.70673 26896 ft 601 kts 85°
2026-04-30 00:26 40.11967 -75.65311 26901 ft 601 kts 86°
2026-04-30 00:27 40.12579 -75.59999 26908 ft 600 kts 87°
2026-04-30 00:27 40.13102 -75.54594 26912 ft 598 kts 89°
2026-04-30 00:27 40.13496 -75.49324 26913 ft 596 kts 90°
2026-04-30 00:27 40.13718 -75.43903 26918 ft 592 kts 95°
2026-04-30 00:28 40.13636 -75.38631 26915 ft 589 kts 96°
2026-04-30 00:28 40.14017 -75.33323 26955 ft 599 kts 85°
2026-04-30 00:28 40.14730 -75.28112 26918 ft 601 kts 85°
2026-04-30 00:28 40.15452 -75.22703 26917 ft 602 kts 85°
2026-04-30 00:29 40.16167 -75.17382 26920 ft 602 kts 85°
2026-04-30 00:29 40.16890 -75.12054 26925 ft 603 kts 85°
2026-04-30 00:29 40.17593 -75.06726 26924 ft 601 kts 85°
2026-04-30 00:29 40.18261 -75.01389 26918 ft 599 kts 86°
2026-04-30 00:30 40.18888 -74.96036 26804 ft 602 kts 86°
2026-04-30 00:30 40.19455 -74.90621 25369 ft 612 kts 88°
2026-04-30 00:30 40.19939 -74.85111 23887 ft 613 kts 88°
2026-04-30 00:30 40.20355 -74.79583 22393 ft 613 kts 89°
2026-04-30 00:31 40.20678 -74.74075 20908 ft 612 kts 90°
2026-04-30 00:31 40.20901 -74.68507 19409 ft 612 kts 91°
2026-04-30 00:31 40.21007 -74.62985 17922 ft 611 kts 92°
2026-04-30 00:31 40.20987 -74.57440 16427 ft 610 kts 95°
2026-04-30 00:32 40.21060 -74.51863 14957 ft 614 kts 83°
2026-04-30 00:32 40.22178 -74.46466 13519 ft 620 kts 67°
2026-04-30 00:32 40.24282 -74.41593 12072 ft 623 kts 57°
2026-04-30 00:32 40.26693 -74.36900 10934 ft 612 kts 56°
2026-04-30 00:33 40.29088 -74.32328 10958 ft 609 kts 57°
2026-04-30 00:33 40.31483 -74.27756 10961 ft 608 kts 57°
2026-04-30 00:33 40.33883 -74.23172 10964 ft 608 kts 57°
2026-04-30 00:33 40.36291 -74.18567 10962 ft 608 kts 57°
2026-04-30 00:34 40.38647 -74.14056 10960 ft 608 kts 57°
2026-04-30 00:34 40.41029 -74.09470 10961 ft 608 kts 57°
2026-04-30 00:34 40.42615 -74.06399 10963 ft 608 kts 57°
2026-04-30 00:34 40.45754 -74.00263 10966 ft 608 kts 57°
2026-04-30 00:35 40.48104 -73.95619 10972 ft 608 kts 58°
2026-04-30 00:35 40.50397 -73.91052 10976 ft 607 kts 58°
2026-04-30 00:35 40.52685 -73.86462 10977 ft 607 kts 58°
2026-04-30 00:35 40.54979 -73.81816 10978 ft 607 kts 58°
2026-04-30 00:36 40.57221 -73.77222 10976 ft 607 kts 59°
2026-04-30 00:36 40.59442 -73.72606 10975 ft 607 kts 59°
2026-04-30 00:36 40.61678 -73.67876 10976 ft 607 kts 59°
2026-04-30 00:36 40.63850 -73.63191 10976 ft 607 kts 60°
2026-04-30 00:37 40.66003 -73.58447 10974 ft 607 kts 60°
2026-04-30 00:37 40.67954 -73.53570 11061 ft 556 kts 73°
2026-04-30 00:37 40.68921 -73.49218 11062 ft 450 kts 77°
2026-04-30 00:37 40.69711 -73.45546 10949 ft 382 kts 77°
2026-04-30 00:38 40.70399 -73.42368 10407 ft 342 kts 77°
2026-04-30 00:38 40.71046 -73.39546 10015 ft 301 kts 76°
2026-04-30 00:38 40.71657 -73.36899 9451 ft 298 kts 77°
2026-04-30 00:38 40.72221 -73.34371 8587 ft 283 kts 77°
2026-04-30 00:39 40.72772 -73.31941 8288 ft 269 kts 77°
2026-04-30 00:39 40.73298 -73.29606 7945 ft 260 kts 84°
2026-04-30 00:39 40.73193 -73.28188 7976 ft 217 kts 126°
2026-04-30 00:39 40.71649 -73.27264 8098 ft 207 kts 205°
2026-04-30 00:40 40.70276 -73.28134 7938 ft 227 kts 206°
2026-04-30 00:40 40.68843 -73.29097 7961 ft 235 kts 207°
2026-04-30 00:40 40.67407 -73.30118 7959 ft 236 kts 208°
2026-04-30 00:40 40.65944 -73.31133 7981 ft 235 kts 207°
2026-04-30 00:41 40.64488 -73.32125 7950 ft 236 kts 207°
2026-04-30 00:41 40.63025 -73.33118 7956 ft 236 kts 207°
2026-04-30 00:41 40.61576 -73.34105 7958 ft 235 kts 207°
2026-04-30 00:41 40.60115 -73.35094 7959 ft 235 kts 207°
2026-04-30 00:42 40.58686 -73.36138 7947 ft 233 kts 224°
2026-04-30 00:42 40.58125 -73.38032 7614 ft 238 kts 280°
2026-04-30 00:42 40.59119 -73.39727 6864 ft 249 kts 334°
2026-04-30 00:42 40.60796 -73.40305 6300 ft 252 kts 347°
2026-04-30 00:43 40.62513 -73.40765 5768 ft 254 kts 347°
2026-04-30 00:43 40.64245 -73.41216 5205 ft 256 kts 348°
2026-04-30 00:43 40.65939 -73.41627 4951 ft 244 kts 348°
2026-04-30 00:43 40.67607 -73.42043 4288 ft 244 kts 347°
2026-04-30 00:44 40.69235 -73.42493 3645 ft 240 kts 347°
2026-04-30 00:44 40.70832 -73.42956 3086 ft 232 kts 346°
2026-04-30 00:44 40.72372 -73.43411 2911 ft 221 kts 346°
2026-04-30 00:44 40.73823 -73.43719 2912 ft 204 kts 13°
2026-04-30 00:45 40.75289 -73.43268 2936 ft 226 kts 14°
2026-04-30 00:45 40.76878 -73.42673 3012 ft 255 kts 18°
2026-04-30 00:45 40.78614 -73.41958 3000 ft 247 kts 17°
2026-04-30 00:45 40.80185 -73.41328 2976 ft 235 kts 17°
2026-04-30 00:46 40.81760 -73.40700 2951 ft 234 kts 17°
2026-04-30 00:46 40.83306 -73.40090 2969 ft 232 kts 17°
2026-04-30 00:46 40.84855 -73.39471 2971 ft 230 kts 17°
2026-04-30 00:46 40.86373 -73.38850 2899 ft 234 kts 18°
2026-04-30 00:47 40.87443 -73.38418 2664 ft 245 kts
2026-04-30 00:47 40.89406 -73.39488 2014 ft 239 kts 292°
2026-04-30 00:47 40.89554 -73.41528 1970 ft 212 kts 260°
2026-04-30 00:47 40.89327 -73.43419 1954 ft 203 kts 258°
2026-04-30 00:48 40.89060 -73.45193 1970 ft 190 kts 256°
2026-04-30 00:48 40.88784 -73.46864 1972 ft 187 kts 255°
2026-04-30 00:48 40.88493 -73.48586 1955 ft 196 kts 255°
2026-04-30 00:48 40.88172 -73.50371 1975 ft 206 kts 255°
2026-04-30 00:49 40.87847 -73.52298 1950 ft 220 kts 254°
2026-04-30 00:49 40.86986 -73.53881 1966 ft 221 kts 217°
2026-04-30 00:49 40.85743 -73.55126 1948 ft 225 kts 216°
2026-04-30 00:49 40.84467 -73.56368 1972 ft 228 kts 215°
2026-04-30 00:50 40.83206 -73.57535 1992 ft 220 kts 213°
2026-04-30 00:50 40.82369 -73.58282 1995 ft 214 kts 213°
2026-04-30 00:50 40.80828 -73.59683 2013 ft 198 kts 202°
2026-04-30 00:50 40.79586 -73.59615 1915 ft 184 kts 144°
2026-04-30 00:51 40.79034 -73.58268 1922 ft 174 kts 90°
2026-04-30 00:51 40.79069 -73.56692 1895 ft 184 kts 78°
2026-04-30 00:51 40.79136 -73.54990 1907 ft 195 kts 92°
2026-04-30 00:51 40.79159 -73.53176 2025 ft 204 kts 92°
2026-04-30 00:52 40.79164 -73.51289 2091 ft 201 kts 95°
2026-04-30 00:52 40.78757 -73.49861 1914 ft 155 kts 130°
2026-04-30 00:52 40.78020 -73.48653 1651 ft 188 kts 135°
2026-04-30 00:52 40.77101 -73.47370 1393 ft 193 kts 136°
2026-04-30 00:53 40.76526 -73.46556 1194 ft 178 kts 136°
2026-04-30 00:53 40.75447 -73.45011 737 ft 171 kts 134°
2026-04-30 00:53 40.74651 -73.43870 446 ft 176 kts 136°
2026-04-30 00:53 40.73817 -73.42670 181 ft 174 kts 135°
2026-04-30 00:54 40.73064 -73.41597 92 ft 146 kts 134°
2026-04-30 00:54 40.72473 -73.40745 85 ft 80 kts 133°
2026-04-30 00:54 40.72260 -73.40456 85 ft 14 kts 179°
2026-04-30 00:54 40.72204 -73.40498 85 ft 0 kts 221°
2026-04-30 00:55 40.72190 -73.40520 85 ft 8 kts 247°
2026-04-30 00:55 40.72239 -73.40617 85 ft 18 kts 312°
2026-04-30 00:55 40.72395 -73.40839 85 ft 2 kts 314°
2026-04-30 00:56 40.72419 -73.40877 85 ft 8 kts 308°
2026-04-30 00:56 40.72465 -73.40949 85 ft 12 kts 312°
2026-04-30 00:56 40.72533 -73.41043 85 ft 16 kts 314°
2026-04-30 00:56 40.72602 -73.41145 85 ft 14 kts 313°
2026-04-30 00:57 40.72668 -73.41238 85 ft 10 kts 311°
2026-04-30 00:57 40.72680 -73.41256 85 ft 0 kts 314°